Time,TemperatureF,DewpointF,PressureIn,WindDirection,WindDirectionDegrees,WindSpeedMPH,WindSpeedGustMPH,Humidity,HourlyPrecipIn,Conditions,Clouds,dailyrainin,SoftwareType,DateUTC
2013-01-15 00:07:00,20.7,20.5,30.34,NNW,337,2.7,-999.0,99,-99.99,,,0.00,Acu-Link.com,2013-01-15 06:07:00,
2013-01-15 00:22:00,20.7,20.5,30.34,NNW,337,3.2,-999.0,99,-99.99,,,0.00,Acu-Link.com,2013-01-15 06:22:00,
2013-01-15 00:37:00,20.7,20.5,30.34,NNW,337,3.2,-999.0,99,-99.99,,,0.00,Acu-Link.com,2013-01-15 06:37:00,
2013-01-15 00:52:00,20.7,20.5,30.34,NNW,337,3.7,-999.0,99,-99.99,,,0.00,Acu-Link.com,2013-01-15 06:52:00,
2013-01-15 01:07:00,20.7,20.5,30.34,North,0,4.2,-999.0,99,-99.99,,,0.00,Acu-Link.com,2013-01-15 07:07:00,
2013-01-15 01:22:00,20.7,20.5,30.34,ENE,67,2.7,-999.0,99,-99.99,,,0.00,Acu-Link.com,2013-01-15 07:22:00,
2013-01-15 01:38:00,20.7,20.5,30.34,NNW,337,3.7,-999.0,99,-99.99,,,0.00,Acu-Link.com,2013-01-15 07:38:00,
2013-01-15 01:53:00,20.7,20.5,30.33,NNW,337,2.2,-999.0,99,-99.99,,,0.00,Acu-Link.com,2013-01-15 07:53:00,
2013-01-15 02:08:00,20.5,20.3,30.34,NE,45,1.1,-999.0,99,-99.99,,,0.00,Acu-Link.com,2013-01-15 08:08:00,
2013-01-15 02:23:00,20.3,20.1,30.33,NE,45,2.2,-999.0,99,-99.99,,,0.00,Acu-Link.com,2013-01-15 08:23:00,
2013-01-15 02:38:00,19.9,19.7,30.33,NNE,22,3.7,-999.0,99,-99.99,,,0.00,Acu-Link.com,2013-01-15 08:38:00,
2013-01-15 02:53:00,19.9,19.7,30.32,NNE,22,2.2,-999.0,99,-99.99,,,0.00,Acu-Link.com,2013-01-15 08:53:00,
2013-01-15 03:14:00,19.9,19.7,30.32,NNE,22,2.2,-999.0,99,-99.99,,,0.00,Acu-Link.com,2013-01-15 09:14:00,
2013-01-15 03:29:00,19.8,19.6,30.31,NNE,22,2.7,-999.0,99,-99.99,,,0.00,Acu-Link.com,2013-01-15 09:29:00,
2013-01-15 03:44:00,19.6,19.4,30.32,North,0,2.2,-999.0,99,-99.99,,,0.00,Acu-Link.com,2013-01-15 09:44:00,
2013-01-15 03:59:00,19.4,19.2,30.31,NNE,22,1.7,-999.0,99,-99.99,,,0.00,Acu-Link.com,2013-01-15 09:59:00,
2013-01-15 04:14:00,19.2,19.0,30.30,NNE,22,2.7,-999.0,99,-99.99,,,0.00,Acu-Link.com,2013-01-15 10:14:00,
2013-01-15 04:29:00,19.4,19.2,30.30,NE,45,2.7,-999.0,99,-99.99,,,0.00,Acu-Link.com,2013-01-15 10:29:00,
2013-01-15 04:44:00,19.6,19.4,30.30,NE,45,3.2,-999.0,99,-99.99,,,0.00,Acu-Link.com,2013-01-15 10:44:00,
2013-01-15 04:59:00,19.6,19.4,30.30,NNE,22,2.7,-999.0,99,-99.99,,,0.00,Acu-Link.com,2013-01-15 10:59:00,
2013-01-15 05:15:00,19.8,19.6,30.30,NE,45,3.7,-999.0,99,-99.99,,,0.00,Acu-Link.com,2013-01-15 11:15:00,
2013-01-15 05:30:00,19.8,19.6,30.29,NNW,337,3.7,-999.0,99,-99.99,,,0.00,Acu-Link.com,2013-01-15 11:30:00,
2013-01-15 05:45:00,19.8,19.6,30.29,NE,45,3.2,-999.0,99,-99.99,,,0.00,Acu-Link.com,2013-01-15 11:45:00,
2013-01-15 06:00:00,19.9,19.7,30.29,NE,45,4.2,-999.0,99,-99.99,,,0.00,Acu-Link.com,2013-01-15 12:00:00,
2013-01-15 06:15:00,19.8,19.6,30.29,NE,45,3.2,-999.0,99,-99.99,,,0.00,Acu-Link.com,2013-01-15 12:15:00,
2013-01-15 06:30:00,19.8,19.6,30.28,NNE,22,2.7,-999.0,99,-99.99,,,0.00,Acu-Link.com,2013-01-15 12:30:00,
2013-01-15 06:45:00,20.1,19.9,30.29,NE,45,2.7,-999.0,99,-99.99,,,0.00,Acu-Link.com,2013-01-15 12:45:00,
2013-01-15 07:00:00,19.9,19.7,30.30,North,0,2.7,-999.0,99,-99.99,,,0.00,Acu-Link.com,2013-01-15 13:00:00,
2013-01-15 07:16:00,19.9,19.7,30.31,NNE,22,2.2,-999.0,99,-99.99,,,0.00,Acu-Link.com,2013-01-15 13:16:00,
2013-01-15 07:31:00,20.1,19.9,30.31,NNE,22,2.7,-999.0,99,-99.99,,,0.00,Acu-Link.com,2013-01-15 13:31:00,
2013-01-15 07:46:00,21.4,21.2,30.31,NNW,337,2.7,-999.0,99,-99.99,,,0.00,Acu-Link.com,2013-01-15 13:46:00,
2013-01-15 08:01:00,22.6,22.4,30.31,ENE,67,3.2,-999.0,99,-99.99,,,0.00,Acu-Link.com,2013-01-15 14:01:00,
2013-01-15 08:16:00,23.2,23.0,30.30,NE,45,4.2,-999.0,99,-99.99,,,0.00,Acu-Link.com,2013-01-15 14:16:00,
2013-01-15 08:31:00,23.4,23.2,30.30,NNE,22,4.2,-999.0,99,-99.99,,,0.00,Acu-Link.com,2013-01-15 14:31:00,
2013-01-15 08:46:00,23.5,23.3,30.29,NE,45,2.7,-999.0,99,-99.99,,,0.00,Acu-Link.com,2013-01-15 14:46:00,
2013-01-15 09:01:00,24.6,24.4,30.29,NE,45,4.2,-999.0,99,-99.99,,,0.00,Acu-Link.com,2013-01-15 15:01:00,
2013-01-15 09:16:00,25.3,25.1,30.28,East,90,4.7,-999.0,99,-99.99,,,0.00,Acu-Link.com,2013-01-15 15:16:00,
2013-01-15 09:31:00,25.2,25.0,30.28,East,90,4.7,-999.0,99,-99.99,,,0.00,Acu-Link.com,2013-01-15 15:31:00,
2013-01-15 09:47:00,26.1,25.9,30.28,ESE,112,5.3,-999.0,99,-99.99,,,0.00,Acu-Link.com,2013-01-15 15:47:00,
2013-01-15 10:02:00,27.1,26.9,30.28,NNE,22,3.7,-999.0,99,-99.99,,,0.00,Acu-Link.com,2013-01-15 16:02:00,
2013-01-15 10:17:00,28.4,28.2,30.28,East,90,3.7,-999.0,99,-99.99,,,0.00,Acu-Link.com,2013-01-15 16:17:00,
2013-01-15 10:32:00,28.6,28.4,30.26,NNE,22,5.3,-999.0,99,-99.99,,,0.00,Acu-Link.com,2013-01-15 16:32:00,
2013-01-15 10:47:00,28.8,28.6,30.26,NNW,337,2.7,-999.0,99,-99.99,,,0.00,Acu-Link.com,2013-01-15 16:47:00,
2013-01-15 11:02:00,30.0,29.8,30.25,ENE,67,2.7,-999.0,99,-99.99,,,0.00,Acu-Link.com,2013-01-15 17:02:00,
2013-01-15 11:17:00,30.0,29.8,30.24,NNW,337,5.8,-999.0,99,-99.99,,,0.00,Acu-Link.com,2013-01-15 17:17:00,
2013-01-15 11:32:00,29.8,29.6,30.19,NNE,22,3.7,-999.0,99,-99.99,,,0.00,Acu-Link.com,2013-01-15 17:32:00,
2013-01-15 11:47:00,29.1,28.9,30.18,NNE,22,6.3,-999.0,99,-99.99,,,0.00,Acu-Link.com,2013-01-15 17:47:00,
2013-01-15 12:03:00,28.8,28.6,30.25,WNW,292,4.7,-999.0,99,-99.99,,,0.00,Acu-Link.com,2013-01-15 18:03:00,
2013-01-15 12:18:00,28.4,28.2,30.26,WNW,292,4.7,-999.0,99,-99.99,,,0.00,Acu-Link.com,2013-01-15 18:18:00,
2013-01-15 12:33:00,28.9,28.7,30.25,NNE,22,2.7,-999.0,99,-99.99,,,0.00,Acu-Link.com,2013-01-15 18:33:00,
2013-01-15 12:48:00,28.6,28.4,30.22,East,90,2.2,-999.0,99,-99.99,,,0.00,Acu-Link.com,2013-01-15 18:48:00,
2013-01-15 13:03:00,28.6,28.4,30.22,NNE,22,4.7,-999.0,99,-99.99,,,0.00,Acu-Link.com,2013-01-15 19:03:00,
2013-01-15 13:18:00,28.2,28.0,30.22,NW,315,3.7,-999.0,99,-99.99,,,0.00,Acu-Link.com,2013-01-15 19:18:00,
2013-01-15 13:33:00,28.4,28.2,30.20,NE,45,2.7,-999.0,99,-99.99,,,0.00,Acu-Link.com,2013-01-15 19:33:00,
2013-01-15 13:48:00,28.4,28.2,30.20,NW,315,3.7,-999.0,99,-99.99,,,0.00,Acu-Link.com,2013-01-15 19:48:00,
2013-01-15 14:03:00,28.4,28.2,30.18,NE,45,6.8,-999.0,99,-99.99,,,0.00,Acu-Link.com,2013-01-15 20:03:00,
2013-01-15 14:19:00,28.6,28.4,30.17,ENE,67,5.8,-999.0,99,-99.99,,,0.00,Acu-Link.com,2013-01-15 20:19:00,
2013-01-15 14:34:00,28.8,28.6,30.19,NNE,22,3.7,-999.0,99,-99.99,,,0.00,Acu-Link.com,2013-01-15 20:34:00,
2013-01-15 14:49:00,28.9,28.7,30.17,East,90,4.7,-999.0,99,-99.99,,,0.00,Acu-Link.com,2013-01-15 20:49:00,
2013-01-15 15:04:00,29.3,29.1,30.17,NNE,22,2.7,-999.0,99,-99.99,,,0.00,Acu-Link.com,2013-01-15 21:04:00,
2013-01-15 15:19:00,29.1,28.9,30.17,North,0,2.7,-999.0,99,-99.99,,,0.00,Acu-Link.com,2013-01-15 21:19:00,
2013-01-15 15:34:00,29.1,28.9,30.17,NNW,337,3.7,-999.0,99,-99.99,,,0.00,Acu-Link.com,2013-01-15 21:34:00,
2013-01-15 15:49:00,28.9,28.7,30.15,NE,45,2.2,-999.0,99,-99.99,,,0.00,Acu-Link.com,2013-01-15 21:49:00,
2013-01-15 16:05:00,28.8,28.6,30.16,NNE,22,4.2,-999.0,99,-99.99,,,0.00,Acu-Link.com,2013-01-15 22:05:00,
2013-01-15 16:20:00,28.8,28.6,30.14,NE,45,3.7,-999.0,99,-99.99,,,0.00,Acu-Link.com,2013-01-15 22:20:00,
2013-01-15 16:35:00,28.8,28.6,30.14,East,90,4.2,-999.0,99,-99.99,,,0.00,Acu-Link.com,2013-01-15 22:35:00,
2013-01-15 16:50:00,28.8,28.6,30.14,NNE,22,2.7,-999.0,99,-99.99,,,0.00,Acu-Link.com,2013-01-15 22:50:00,
2013-01-15 17:05:00,28.6,28.4,30.17,NNE,22,4.2,-999.0,99,-99.99,,,0.00,Acu-Link.com,2013-01-15 23:05:00,
2013-01-15 17:20:00,28.8,28.6,30.15,NE,45,6.3,-999.0,99,-99.99,,,0.00,Acu-Link.com,2013-01-15 23:20:00,
2013-01-15 17:35:00,28.6,28.4,30.14,NNE,22,5.3,-999.0,99,-99.99,,,0.00,Acu-Link.com,2013-01-15 23:35:00,
2013-01-15 17:50:00,28.6,28.4,30.13,WNW,292,6.3,-999.0,99,-99.99,,,0.00,Acu-Link.com,2013-01-15 23:50:00,
2013-01-15 18:06:00,28.4,28.2,30.13,NNW,337,3.2,-999.0,99,-99.99,,,0.00,Acu-Link.com,2013-01-16 00:06:00,
2013-01-15 18:21:00,28.4,28.2,30.13,NW,315,6.8,-999.0,99,-99.99,,,0.00,Acu-Link.com,2013-01-16 00:21:00,
2013-01-15 18:36:00,28.4,28.2,30.12,NNE,22,3.2,-999.0,99,-99.99,,,0.00,Acu-Link.com,2013-01-16 00:36:00,
2013-01-15 18:51:00,28.4,28.2,30.12,NW,315,5.8,-999.0,99,-99.99,,,0.00,Acu-Link.com,2013-01-16 00:51:00,
2013-01-15 19:06:00,28.6,28.4,30.13,NNE,22,2.2,-999.0,99,-99.99,,,0.00,Acu-Link.com,2013-01-16 01:06:00,
2013-01-15 19:21:00,28.6,28.4,30.13,NNW,337,4.2,-999.0,99,-99.99,,,0.00,Acu-Link.com,2013-01-16 01:21:00,
2013-01-15 19:36:00,28.4,28.2,30.12,NNW,337,4.7,-999.0,99,-99.99,,,0.00,Acu-Link.com,2013-01-16 01:36:00,
2013-01-15 19:51:00,28.6,28.4,30.12,WNW,292,4.7,-999.0,99,-99.99,,,0.00,Acu-Link.com,2013-01-16 01:51:00,
2013-01-15 20:06:00,28.6,28.4,30.11,NNE,22,4.2,-999.0,99,-99.99,,,0.00,Acu-Link.com,2013-01-16 02:06:00,
2013-01-15 20:22:00,28.6,28.4,30.12,NW,315,5.8,-999.0,99,-99.99,,,0.00,Acu-Link.com,2013-01-16 02:22:00,
2013-01-15 20:37:00,28.6,28.4,30.11,North,0,3.7,-999.0,99,-99.99,,,0.00,Acu-Link.com,2013-01-16 02:37:00,
2013-01-15 20:52:00,28.8,28.6,30.10,ENE,67,4.2,-999.0,99,-99.99,,,0.00,Acu-Link.com,2013-01-16 02:52:00,
2013-01-15 21:07:00,28.8,28.6,30.10,NE,45,2.7,-999.0,99,-99.99,,,0.00,Acu-Link.com,2013-01-16 03:07:00,
2013-01-15 21:22:00,28.8,28.6,30.11,North,0,4.2,-999.0,99,-99.99,,,0.00,Acu-Link.com,2013-01-16 03:22:00,
2013-01-15 21:37:00,28.9,28.7,30.10,North,0,3.7,-999.0,99,-99.99,,,0.00,Acu-Link.com,2013-01-16 03:37:00,
2013-01-15 21:52:00,28.9,28.7,30.10,NE,45,2.7,-999.0,99,-99.99,,,0.00,Acu-Link.com,2013-01-16 03:52:00,
2013-01-15 22:07:00,28.9,28.7,30.09,North,0,2.7,-999.0,99,-99.99,,,0.00,Acu-Link.com,2013-01-16 04:07:00,
2013-01-15 22:22:00,28.9,28.7,30.10,North,0,3.7,-999.0,99,-99.99,,,0.00,Acu-Link.com,2013-01-16 04:22:00,
2013-01-15 22:38:00,28.9,28.7,30.10,NW,315,3.2,-999.0,99,-99.99,,,0.00,Acu-Link.com,2013-01-16 04:38:00,
2013-01-15 22:53:00,29.1,28.9,30.11,WNW,292,3.7,-999.0,99,-99.99,,,0.00,Acu-Link.com,2013-01-16 04:53:00,
2013-01-15 23:08:00,29.1,28.9,30.08,NNW,337,2.2,-999.0,99,-99.99,,,0.00,Acu-Link.com,2013-01-16 05:08:00,
2013-01-15 23:23:00,29.1,28.9,30.08,NW,315,3.2,-999.0,99,-99.99,,,0.00,Acu-Link.com,2013-01-16 05:23:00,
2013-01-15 23:38:00,29.1,28.9,30.08,NNW,337,3.7,-999.0,99,-99.99,,,0.00,Acu-Link.com,2013-01-16 05:38:00,
2013-01-15 23:53:00,29.3,29.1,30.07,NNE,22,3.7,-999.0,99,-99.99,,,0.00,Acu-Link.com,2013-01-16 05:53:00,